Location: ??
(35.5653°N, 139.6194°E)
Time: 22:04:31
(UTC+00:00)

Delta 2 Rocket - Pass Details

Date: 25 February 2020
Orbit: 416 x 808 km, 35.6° (Epoch: 05 April)

Event Time Altitude Azimuth Distance (km) Brightness Sun altitude
Exits shadow 20:10:56 - 208° (SSW) 2,171 6.1 -14.1°
Reaches altitude 10° 20:12:45 10° 192° (SSW) 1,610 5.6 -13.7°
Maximum altitude 20:15:01 16° 153° (SSE) 1,253 5.5 -13.3°
Drops below altitude 10° 20:17:12 10° 113° (ESE) 1,531 6.8 -12.8°
Sets 20:19:52 0° 90° (E) 2,366 8.7 -12.3°
